Location: Unspecified
(0.0000°N, 0.0000°E)
Time: 22:58:08
(UTC+00:00)

Courier 1B - All Passes

Search period start: 12 December 2018 00:00
Search period end: 22 December 2018 00:00
Orbit: 963 x 1209 km, 28.3° (Epoch: 12 December)

Date Brightness Start Highest point End Pass type
(mag) Time Alt. Az. Time Alt. Az. Time Alt. Az.
12 Dec - 05:16:40 10° N 05:20:20 15° NNE 05:23:57 10° ENE visible
12 Dec - 07:08:28 10° NW 07:14:47 54° NNE 07:21:06 10° ESE daylight
12 Dec - 09:02:48 10° W 09:08:48 40° SSW 09:15:00 10° SE daylight
12 Dec - 11:01:03 10° SW 11:03:35 12° SSW 11:06:09 10° S daylight
12 Dec - 16:48:12 10° SSW 16:52:52 17° SSE 16:57:35 10° ESE daylight
12 Dec - 18:40:17 10° SW 18:47:48 51° SSE 18:55:23 10° ENE visible
12 Dec - 20:34:40 10° WSW 20:42:18 53° NNW 20:49:46 10° NE visible
12 Dec - 22:32:23 10° WNW 22:37:09 17° NNW 22:41:49 10° NNE night (unlit)
13 Dec - 04:24:20 10° N 04:26:15 11° NNE 04:28:09 10° NE visible
13 Dec - 06:15:01 10° NW 06:21:01 38° NNE 06:26:57 10° E daylight
13 Dec - 08:08:43 10° WNW 08:15:03 57° SSW 08:21:28 10° SE daylight
13 Dec - 10:05:35 10° WSW 10:09:30 16° SSW 10:13:31 10° SSE daylight
13 Dec - 15:55:40 10° S 15:58:35 12° SSE 16:01:32 10° SE daylight
13 Dec - 17:46:44 10° SW 17:53:45 38° SSE 18:00:54 10° E daylight
13 Dec - 19:40:27 10° WSW 19:48:16 72° NNW 19:56:04 10° NE visible
13 Dec - 21:37:02 10° WNW 21:42:58 23° NNW 21:48:49 10° NNE visible
14 Dec - 05:21:40 10° NNW 05:27:11 27° NNE 05:32:35 10° E visible
14 Dec - 07:14:48 10° WNW 07:21:19 81° SSW 07:27:49 10° ESE daylight
14 Dec - 09:10:39 10° WSW 09:15:32 22° SSW 09:20:30 10° SSE daylight
14 Dec - 16:53:22 10° SSW 16:59:40 28° SSE 17:06:08 10° E daylight
14 Dec - 18:46:27 10° WSW 18:54:15 86° SSE 19:02:10 10° ENE visible
14 Dec - 20:42:05 10° W 20:48:51 31° NNW 20:55:32 10° NNE visible
14 Dec - 22:43:11 10° NNW 22:44:15 10° NNW 22:45:19 10° N night (unlit)
15 Dec - 04:28:26 10° NNW 04:33:16 20° NNE 04:37:57 10° ENE visible
15 Dec - 06:21:01 10° NW 06:27:36 72° NNE 06:34:02 10° ESE daylight
15 Dec - 08:16:04 10° W 08:21:39 30° SSW 08:27:18 10° SSE daylight
15 Dec - 16:00:15 10° SSW 16:05:34 21° SSE 16:11:01 10° ESE daylight
15 Dec - 17:52:39 10° SW 18:00:15 64° SSE 18:08:02 10° ENE daylight
15 Dec - 19:47:29 10° W 19:54:45 42° NNW 20:02:03 10° NE visible
15 Dec - 21:46:05 10° NW 21:49:54 14° NNW 21:53:41 10° N visible
16 Dec - 03:35:24 10° NNW 03:39:14 15° NNE 03:42:57 10° ENE visible
16 Dec - 05:27:22 10° NW 05:33:51 51° NNE 05:40:07 10° ESE visible
16 Dec - 07:21:44 10° W 07:27:52 43° SSW 07:33:59 10° SE daylight
16 Dec - 09:20:01 10° SW 09:22:29 12° SSW 09:24:58 10° S daylight
16 Dec - 15:07:28 10° S 15:11:24 15° SSE 15:15:25 10° ESE daylight
16 Dec - 16:59:04 10° SW 17:06:15 47° SSE 17:13:42 10° ENE daylight
16 Dec - 18:53:09 10° WSW 19:00:42 56° NNW 19:08:23 10° NE visible
16 Dec - 20:50:25 10° WNW 20:55:37 19° NNW 21:00:48 10° NNE visible
17 Dec - 02:42:48 10° N 02:45:04 12° NNE 02:47:17 10° NE visible
17 Dec - 04:33:49 10° NW 04:40:02 37° NNE 04:46:00 10° E visible
17 Dec - 06:27:35 10° WNW 06:34:07 61° SSW 06:40:31 10° SE daylight
17 Dec - 08:24:27 10° WSW 08:28:27 17° SSW 08:32:29 10° SSE daylight
17 Dec - 14:15:45 10° S 14:17:09 11° SSE 14:18:35 10° SSE daylight
17 Dec - 16:05:40 10° SW 16:12:15 34° SSE 16:19:06 10° E daylight
17 Dec - 17:59:05 10° WSW 18:06:41 76° NNW 18:14:33 10° NE daylight
17 Dec - 19:55:16 10° WNW 20:01:25 25° NNW 20:07:35 10° NNE visible
18 Dec - 03:40:21 10° NNW 03:46:08 27° NNE 03:51:39 10° E visible
18 Dec - 05:33:36 10° WNW 05:40:24 86° SSW 05:46:55 10° ESE daylight
18 Dec - 07:29:28 10° WSW 07:34:32 23° SSW 07:39:34 10° SSE daylight
18 Dec - 15:12:29 10° SSW 15:18:14 25° SSE 15:24:13 10° E daylight
18 Dec - 17:05:13 10° WSW 17:12:42 81° SSE 17:20:32 10° ENE daylight
18 Dec - 19:00:30 10° W 19:07:16 33° NNW 19:14:09 10° NE visible
18 Dec - 21:00:21 10° NW 21:02:43 11° NNW 21:05:03 10° N visible
19 Dec - 02:47:01 10° NNW 02:52:07 20° NNE 02:57:01 10° ENE visible
19 Dec - 04:39:44 10° NW 04:46:38 68° NNE 04:53:10 10° ESE visible
19 Dec - 06:34:50 10° W 06:40:42 33° SSW 06:46:26 10° SSE daylight
19 Dec - 14:19:34 10° SSW 14:24:10 18° SSE 14:28:57 10° ESE daylight
19 Dec - 16:11:34 10° SW 16:18:45 60° SSE 16:26:19 10° ENE daylight
19 Dec - 18:06:04 10° W 18:13:11 44° NNW 18:20:34 10° NE visible
19 Dec - 20:04:08 10° NW 20:08:20 15° NNW 20:12:33 10° NNE visible
20 Dec - 01:53:51 10° NNW 01:57:59 16° NNE 02:02:00 10° ENE visible
20 Dec - 03:46:00 10° NW 03:52:49 49° NNE 03:59:15 10° ESE visible
20 Dec - 05:40:26 10° WNW 05:46:55 46° SSW 05:53:09 10° SE daylight
20 Dec - 07:38:33 10° SW 07:41:25 13° SSW 07:44:16 10° S daylight
20 Dec - 13:27:07 10° S 13:30:04 13° SSE 13:33:04 10° SE daylight
20 Dec - 15:18:07 10° SW 15:24:49 43° SSE 15:31:54 10° E daylight
20 Dec - 17:11:53 10° WSW 17:19:10 59° NNW 17:26:48 10° NE daylight
20 Dec - 19:08:44 10° WNW 19:14:03 20° NNW 19:19:27 10° NNE visible
21 Dec - 01:01:02 10° N 01:03:45 12° NNE 01:06:24 10° NE night (unlit)
21 Dec - 02:52:22 10° NW 02:58:54 36° NNE 03:05:06 10° E visible
21 Dec - 04:46:13 10° WNW 04:53:08 66° SSW 04:59:43 10° SE visible
21 Dec - 06:43:01 10° WSW 06:47:26 18° SSW 06:51:46 10° SSE daylight
21 Dec - 14:24:51 10° SSW 14:30:54 31° SSE 14:37:14 10° E daylight
21 Dec - 16:17:58 10° WSW 16:25:12 80° NNW 16:32:54 10° NE daylight
21 Dec - 18:13:47 10° W 18:19:51 26° NNW 18:26:06 10° NNE visible
